CW8740 Weather Reports


Display with metric or nautical units.
time (UTC)temp
F
wind
direction
speed
MPH
gust
MPH
rain 1hr
in
rain 24hr
in
rain mn
in
humidity
%
barometer
mb
20240520053016 64 68 1.0 5.0 0.00 0.00 0.00
20240520050015 63 68 1.0 5.0 0.00 0.00 0.00
20240520043015 63 68 1.0 4.0 0.00 0.00 0.00
20240520040016 65 0.0 5.0 0.00 0.00 0.00
20240520033035 65 113 2.0 9.0 0.00 0.00 0.00
20240520030016 65 68 2.0 4.0 0.00 0.00 0.00
20240520023015 66 90 2.0 7.0 0.00 0.00 0.00
20240520020015 67 68 2.0 7.0 0.00 0.00 0.00
20240520013015 68 68 3.0 8.0 0.00 0.00 0.00
20240520010017 69 68 1.0 5.0 0.00 0.00 0.00
20240520003017 70 68 1.0 6.0 0.00 0.00 0.00
20240520000016 71 68 3.0 11.0 0.00 0.00 0.00
20240519233017 72 68 3.0 8.0 0.00 0.00 0.00
20240519230017 73 68 4.0 12.0 0.00 0.00 0.00
20240519223016 74 68 4.0 13.0 0.00 0.00 0.00
20240519220017 76 68 4.0 11.0 0.00 0.00 0.00
20240519213017 77 68 4.0 11.0 0.00 0.00 0.00
20240519210016 77 68 4.0 12.0 0.00 0.00 0.00
20240519203018 78 45 3.0 12.0 0.00 0.00 0.00
20240519200017 78 23 4.0 9.0 0.00 0.00 0.00
20240519193016 78 68 3.0 12.0 0.00 0.00 0.00
20240519190016 77 68 4.0 12.0 0.00 0.00 0.00
20240519183036 76 68 4.0 12.0 0.00 0.00 0.00
20240519180016 76 68 4.0 16.0 0.00 0.00 0.00
20240519173016 75 68 5.0 14.0 0.00 0.00 0.00
20240519170016 74 68 6.0 15.0 0.00 0.00 0.00
20240519163016 75 68 6.0 17.0 0.00 0.00 0.00
20240519160015 76 68 5.0 14.0 0.00 0.00 0.00
20240519153035 76 68 6.0 17.0 0.00 0.00 0.00
20240519150015 77 23 5.0 14.0 0.00 0.00 0.00
20240519143015 77 23 4.0 11.0 0.00 0.00 0.00
20240519140015 75 23 4.0 14.0 0.00 0.00 0.00
20240519133035 73 23 4.0 12.0 0.00 0.00 0.00
20240519130016 73 45 3.0 11.0 0.00 0.00 0.00
20240519123057 72 23 2.0 7.0 0.00 0.00 0.00
20240519120017 70 0.0 3.0 0.00 0.00 0.00
20240519113016 68 0.0 1.0 0.00 0.00 0.00
20240519110016 69 0.0 0.0 0.00 0.00 0.00
20240519103016 70 0.0 2.0 0.00 0.00 0.00
20240519100016 70 0.0 2.0 0.00 0.00 0.00
20240519093017 71 270 1.0 3.0 0.00 0.00 0.00
20240519090036 71 270 1.0 4.0 0.00 0.00 0.00
20240519083016 72 225 1.0 4.0 0.00 0.00 0.00
20240519080016 72 203 1.0 6.0 0.00 0.00 0.00
20240519073016 72 180 1.0 4.0 0.00 0.00 0.00
20240519070036 72 203 1.0 6.0 0.00 0.00 0.00
20240519063016 73 0.0 3.0 0.00 0.00 0.00
20240519060017 73 158 1.0 5.0 0.00 0.00 0.00